"2016-04-11 00:00:00",1536411,15.65,63.09,7.392,1.491,16.35,104.0573,9.66,10.99,52.91,0,110.4,13.11,10.45,25.1
"2016-04-11 00:00:30",1536412,16.51,64.55,6.612,1.374,16.39,104.0387,9.61,10.97,53.22,0,110.4,13.12,10.40,26.6
"2016-04-11 00:01:00",1536413,16.85,65.26,7.947,1.324,15.81,104.0298,9.59,10.91,53.48,0,110.4,13.12,10.38,27.3
"2016-04-11 00:01:30",1536414,16.7,63.9,6.934,1.319,15.45,104.0149,9.55,10.9,53.56,0,110.4,13.12,10.34,25.9
"2016-04-11 00:02:00",1536415,15.24,63.28,6.567,1.464,15.97,104.0026,9.52,10.86,53.79,0,110.4,13.12,10.31,25.3
"2016-04-11 00:02:30",1536416,16.28,63.66,8.09,1.676,16.05,103.9897,9.49,10.85,54.09,0,110.4,13.12,10.27,25.7
"2016-04-11 00:03:00",1536417,16.27,62.67,7.188,1.473,16,103.9738,9.45,10.78,54.28,0,110.4,13.12,10.23,24.7
"2016-04-11 00:03:30",1536418,16.08,66.09,7.413,1.26,15.92,103.9699,9.44,10.79,54.45,0,110.4,13.12,10.22,28.1
"2016-04-11 00:04:00",1536419,16.7,65.2,8.15,1.606,15.69,103.9551,9.4,10.72,54.61,0,110.4,13.12,10.18,27.2
"2016-04-11 00:04:30",1536420,16.94,67.19,6.82,1.266,15.77,103.9478,9.38,10.67,54.73,0,110.4,13.12,10.17,29.2
"2016-04-11 00:05:00",1536421,16.49,68.77,6.958,1.442,15.76,103.9445,9.37,10.66,54.84,0,110.4,13.12,10.16,30.8
"2016-04-11 00:05:30",1536422,16.03,63.45,6.746,1.393,14.57,103.9257,9.32,10.58,54.64,0,110.4,13.12,10.11,25.5
"2016-04-11 00:06:00",1536423,15.8,56.85,7.973,1.444,13.63,103.9193,9.31,10.56,54.7,0,110.4,13.12,10.09,18.8
"2016-04-11 00:06:30",1536424,15.44,60,9.89,1.626,15.17,103.8951,9.25,10.5,55,0,110.3,13.13,10.03,22.0
"2016-04-11 00:07:00",1536425,15.56,57.35,7.577,1.47,14.79,103.8899,9.23,10.45,55.21,0,110.3,13.13,10.02,19.3
"2016-04-11 00:07:30",1536426,16.15,62.22,8.19,1.537,15.25,103.8701,9.18,10.46,55.35,0,110.3,13.13,9.97,24.2
"2016-04-11 00:08:00",1536427,17.11,65.19,6.871,1.651,15.35,103.858,9.15,10.45,55.35,0,110.3,13.13,9.93,27.2
"2016-04-11 00:08:30",1536428,16.7,65.67,7.383,1.493,15.41,103.8431,9.11,10.41,55.67,0,110.3,13.13,9.90,27.7
"2016-04-11 00:09:00",1536429,15.93,66.11,6.816,1.605,15.28,103.8279,9.07,10.39,55.58,0,110.3,13.13,9.86,28.1
"2016-04-11 00:09:30",1536430,16.24,65.7,7.369,1.337,15.35,103.8154,9.04,10.35,55.38,0,110.3,13.13,9.83,27.7
"2016-04-11 00:10:00",1536431,16.53,64.71,7.134,1.374,15.15,103.792,8.98,10.3,55.38,0,110.4,13.13,9.77,26.7
"2016-04-11 00:10:30",1536432,16.01,68.56,6.553,1.388,15.26,103.7771,8.94,10.31,55.66,0,110.3,13.13,9.73,30.6
"2016-04-11 00:11:00",1536433,16.11,69.82,7.536,1.351,14.86,103.759,8.9,10.25,55.11,0,110.3,13.13,9.68,31.8
"2016-04-11 00:11:30",1536434,15.64,70.61,7.262,1.379,15.02,103.7432,8.86,10.2,55.34,0,110.3,13.13,9.64,32.6
"2016-04-11 00:12:00",1536435,16.88,71.34,6.364,1.434,15.36,103.7238,8.81,10.19,55.64,0,110.3,13.12,9.59,33.3
"2016-04-11 00:12:30",1536436,16.67,69.08,7.323,1.652,14.71,103.7029,8.75,10.13,55.71,0,110.3,13.12,9.54,31.1
"2016-04-11 00:13:00",1536437,15.92,67.12,7.456,1.503,14.68,103.6851,8.71,10.03,55.61,0,110.3,13.13,9.49,29.1
"2016-04-11 00:13:30",1536438,16.18,69.46,6.676,1.393,14.75,103.6594,8.64,10.04,55.69,0,110.3,13.13,9.43,31.5
"2016-04-11 00:14:00",1536439,15.92,68.65,7.204,1.379,14.67,103.649,8.62,9.99,55.91,0,110.4,13.13,9.40,30.7
"2016-04-11 00:14:30",1536440,16.37,73.73,8.27,1.788,14.68,103.6236,8.55,9.96,55.96,0,110.3,13.13,9.33,35.7
"2016-04-11 00:15:00",1536441,16.71,69.74,7.295,1.262,15.15,103.6102,8.52,9.93,56.19,0,110.3,13.13,9.30,31.7
"2016-04-11 00:15:30",1536442,16.64,74,6.604,1.505,15.48,103.5936,8.47,9.89,56.41,0,110.3,13.13,9.26,36.0
"2016-04-11 00:16:00",1536443,16.53,73.2,6.82,1.536,15.26,103.5768,8.43,9.87,56.48,0,110.3,13.13,9.21,35.2
"2016-04-11 00:16:30",1536444,15.42,68.34,6.452,1.471,14.91,103.5674,8.41,9.8,56.72,0,110.3,13.14,9.19,30.3
"2016-04-11 00:17:00",1536445,17.15,71.13,7.279,1.26,14.95,103.5521,8.37,9.74,56.96,0,110.3,13.14,9.15,33.1
"2016-04-11 00:17:30",1536446,15.1,66.94,7.322,1.373,14.9,103.5446,8.35,9.73,57.22,0,110.3,13.14,9.13,28.9
"2016-04-11 00:18:00",1536447,16.65,72.57,7.055,1.729,15.05,103.537,8.33,9.68,57.36,0,110.3,13.14,9.11,34.6
"2016-04-11 00:18:30",1536448,17.81,72.71,6.641,1.322,15.2,103.5159,8.28,9.64,57.32,0,110.3,13.14,9.06,34.7
"2016-04-11 00:19:00",1536449,15.99,73.37,6.635,1.293,14.84,103.5155,8.28,9.64,57.49,0,110.3,13.14,9.06,35.4
"2016-04-11 00:19:30",1536450,15.82,75.21,8.04,1.345,14.67,103.4949,8.22,9.57,57.84,0,110.3,13.14,9.00,37.2
"2016-04-11 00:20:00",1536451,16.1,68.86,7.66,1.375,14.93,103.4853,8.2,9.55,57.85,0,110.3,13.14,8.98,30.9
"2016-04-11 00:20:30",1536452,15.54,67.61,7.148,1.248,15.01,103.4868,8.2,9.53,57.77,0,110.3,13.14,8.98,29.6
"2016-04-11 00:21:00",1536453,15.17,68.33,7.702,1.418,14.59,103.4829,8.19,9.49,57.8,0,110.3,13.14,8.97,30.3
"2016-04-11 00:21:30",1536454,15.99,69.29,7.941,1.477,15.06,103.4702,8.16,9.45,58.06,0,110.3,13.14,8.94,31.3
"2016-04-11 00:22:00",1536455,14.3,71.84,6.551,1.612,14.82,103.4566,8.12,9.45,58.12,0,110.3,13.14,8.91,33.8
"2016-04-11 00:22:30",1536456,15,71.37,9.04,1.369,14.45,103.4541,8.12,9.39,58.11,0,110.3,13.14,8.90,33.4
"2016-04-11 00:23:00",1536457,14.08,63.19,7.15,1.517,13.86,103.4541,8.12,9.35,58.32,0,110.3,13.14,8.90,25.2
"2016-04-11 00:23:30",1536458,13.93,67.61,8.38,1.337,12.61,103.4538,8.12,9.22,58.15,0,110.3,13.14,8.90,29.6
"2016-04-11 00:24:00",1536459,13.88,69.75,8.12,1.231,13.53,103.4521,8.11,9.26,57.87,0,110.3,13.14,8.89,31.8
"2016-04-11 00:24:30",1536460,15.03,66.95,6.925,1.883,13.48,103.4456,8.1,9.29,58.1,0,110.3,13.14,8.88,28.9
"2016-04-11 00:25:00",1536461,15.07,65.41,7.383,1.589,13.41,103.4248,8.04,9.3,57.94,0,110.3,13.14,8.82,27.4
"2016-04-11 00:25:30",1536462,15.97,70.05,8.1,1.42,14.82,103.4202,8.03,9.29,58.03,0,110.2,13.14,8.81,32.1
"2016-04-11 00:26:00",1536463,15.54,65.06,8.73,1.462,14.74,103.4174,8.02,9.29,58.15,0,110.3,13.15,8.80,27.1
"2016-04-11 00:26:30",1536464,16.57,69.28,7.598,1.448,14.84,103.4044,7.991,9.26,58.13,0,110.3,13.15,8.77,31.3
"2016-04-11 00:27:00",1536465,15.68,64.47,6.649,1.334,14.48,103.3889,7.952,9.24,58.14,0,110.3,13.14,8.73,26.5
"2016-04-11 00:27:30",1536466,15.89,67.81,6.832,1.439,14.89,103.3864,7.945,9.22,58.05,0,110.3,13.14,8.72,29.8
"2016-04-11 00:28:00",1536467,15.94,69.22,7.083,1.535,14.41,103.3858,7.944,9.21,58.24,0,110.3,13.14,8.72,31.2
"2016-04-11 00:28:30",1536468,15.02,68.53,8.74,1.53,14.49,103.3754,7.917,9.19,58.42,0,110.3,13.14,8.70,30.5
"2016-04-11 00:29:00",1536469,14.9,71.59,7.884,1.483,14.53,103.3573,7.871,9.19,58.4,0,110.2,13.14,8.65,33.6
"2016-04-11 00:29:30",1536470,15.49,72.15,6.786,1.272,14.82,103.3525,7.859,9.17,58.39,0,110.2,13.14,8.64,34.2
"2016-04-11 00:30:00",1536471,15.66,70.67,6.857,1.374,14.61,103.3525,7.859,9.15,58.27,0,110.2,13.14,8.64,32.7
"2016-04-11 00:30:30",1536472,14.43,74.75,7.077,1.418,14.97,103.3525,7.859,9.14,58.24,0,110.2,13.14,8.64,36.8
"2016-04-11 00:31:00",1536473,14.93,73.14,6.735,1.249,14.77,103.3457,7.841,9.14,58.3,0,110.2,13.14,8.62,35.1
"2016-04-11 00:31:30",1536474,14.32,73.02,6.287,1.355,14.67,103.3336,7.81,9.11,58.3,0,110.2,13.14,8.59,35.0
"2016-04-11 00:32:00",1536475,14.69,73.66,6.949,1.364,13.87,103.3201,7.776,9.05,58.3,0,110.2,13.14,8.55,35.7
"2016-04-11 00:32:30",1536476,13.64,70.45,8.15,1.477,12.69,103.3219,7.78,8.98,58.39,0,110.2,13.14,8.56,32.4
"2016-04-11 00:33:00",1536477,12.53,60.86,8.56,1.335,12.31,103.3162,7.766,8.96,58.44,0,110.2,13.15,8.54,22.9
"2016-04-11 00:33:30",1536478,15.12,65.09,8.11,1.071,13.63,103.2993,7.723,8.92,58.47,0,110.2,13.15,8.50,27.1
"2016-04-11 00:34:00",1536479,13.94,67.86,7.356,1.457,13.96,103.295,7.711,8.98,58.62,0,110.2,13.15,8.49,29.9
"2016-04-11 00:34:30",1536480,14.55,70.33,7.963,1.493,14.13,103.295,7.711,8.99,58.87,0,110.2,13.16,8.49,32.3
"2016-04-11 00:35:00",1536481,14.69,72.77,6.923,1.408,14.56,103.3017,7.729,8.97,58.87,0,110.2,13.16,8.51,34.8
"2016-04-11 00:35:30",1536482,14.73,75.07,6.88,1.245,14.62,103.2902,7.699,8.92,58.95,0,110.2,13.16,8.48,37.1
"2016-04-11 00:36:00",1536483,14.18,75.68,6.388,1.616,14.5,103.2783,7.669,8.95,58.99,0,110.2,13.16,8.45,37.7
"2016-04-11 00:36:30",1536484,14.76,73.61,7.08,1.551,14.44,103.2801,7.673,8.92,59.18,0,110.2,13.16,8.45,35.6
"2016-04-11 00:37:00",1536485,13.88,74.55,7.006,1.381,14.14,103.2792,7.671,8.91,59.1,0,110.2,13.16,8.45,36.6
"2016-04-11 00:37:30",1536486,13.9,74.21,6.787,1.405,14,103.2637,7.632,8.89,58.85,0,110.2,13.16,8.41,36.2
"2016-04-11 00:38:00",1536487,13.23,69.45,6.951,1.47,13.78,103.2482,7.592,8.84,58.61,0,110.2,13.16,8.37,31.4
"2016-04-11 00:38:30",1536488,12.63,66.3,6.515,1.5,13.13,103.2511,7.599,8.73,58.59,0,110.2,13.16,8.38,28.3
"2016-04-11 00:39:00",1536489,13.37,68.79,7.672,1.543,13.11,103.2506,7.598,8.78,58.49,0,110.2,13.16,8.38,30.8
"2016-04-11 00:39:30",1536490,12.52,69.76,8.14,1.11,12.54,103.2472,7.589,8.68,58.37,0,110.2,13.16,8.37,31.8
"2016-04-11 00:40:00",1536491,12.57,69.07,6.047,1.612,13.49,103.2306,7.547,8.76,58.59,0,110.2,13.16,8.33,31.1
"2016-04-11 00:40:30",1536492,13.15,72.25,7.251,1.466,14.08,103.2179,7.514,8.77,58.39,0,110.2,13.16,8.29,34.2
"2016-04-11 00:41:00",1536493,12.37,71.89,6.93,1.434,14.31,103.2181,7.515,8.77,58.64,0,110.2,13.16,8.29,33.9
"2016-04-11 00:41:30",1536494,11.33,75.99,6.203,1.461,14.62,103.2181,7.515,8.77,58.54,0,110.2,13.16,8.29,38.0
"2016-04-11 00:42:00",1536495,11.65,75.03,7.757,1.33,14.59,103.2181,7.515,8.78,58.52,0,110.2,13.16,8.29,37.0
"2016-04-11 00:42:30",1536496,11.83,74.93,7.109,1.391,13.55,103.2181,7.515,8.73,57.64,0,110.2,13.16,8.29,36.9
"2016-04-11 00:43:00",1536497,10.32,74.14,2.913,0.241,10.86,103.2181,7.515,8.5,57.81,0,110.2,13.21,8.29,36.1
"2016-04-11 00:43:30",1536498,11.08,79.36,9.09,1.26,12.43,103.2181,7.515,8.61,58.23,0,110.2,13.16,8.29,41.4
"2016-04-11 00:44:00",1536499,11.7,80.3,10.43,1.425,13.88,103.2181,7.515,8.66,58.2,0,110.2,13.16,8.29,42.3
"2016-04-11 00:44:30",1536500,11.01,90.9,6.726,1.515,14.7,103.2181,7.515,8.75,58.57,0,110.2,13.16,8.29,52.9
"2016-04-11 00:45:00",1536501,10.28,90.1,7.739,1.611,14.35,103.2181,7.515,8.7,59.01,0,110.2,13.16,8.29,52.1
"2016-04-11 00:45:30",1536502,10.35,84.8,8.52,1.464,14.7,103.2181,7.515,8.69,59.27,0,110.2,13.16,8.29,46.8
"2016-04-11 00:46:00",1536503,9.45,76,4.503,1.009,11.52,103.2181,7.515,8.6,58.96,0,110.2,13.16,8.29,38.0
"2016-04-11 00:46:30",1536504,11.45,77.22,7.686,1.507,12.75,103.2179,7.514,8.57,58.41,0,110.2,13.16,8.29,39.2
"2016-04-11 00:47:00",1536505,11.71,74.8,7.933,1.442,13.38,103.2179,7.514,8.63,58.46,0,110.2,13.16,8.29,36.8
"2016-04-11 00:47:30",1536506,12.51,76.28,7.703,1.336,14.39,103.2159,7.509,8.7,58.81,0,110.2,13.16,8.29,38.3
"2016-04-11 00:48:00",1536507,11.63,67.63,8.79,1.454,14.3,103.2125,7.501,8.7,59.49,0,110.2,13.16,8.28,29.6
"2016-04-11 00:48:30",1536508,10.74,53,10.21,1.526,12.15,103.2105,7.496,8.69,63.67,0,110.2,13.16,8.27,15.0
"2016-04-11 00:49:00",1536509,11.65,52.46,7.376,1.36,12.96,103.1891,7.441,8.74,68.33,0,110.2,13.16,8.22,14.5
"2016-04-11 00:49:30",1536510,11.72,52.67,7.522,1.434,12.67,103.1676,7.386,8.72,70.05,0,110.2,13.16,8.16,14.7
"2016-04-11 00:50:00",1536511,11.78,51.2,7.607,1.402,13.12,103.1383,7.311,8.7,71.04,0,110.2,13.16,8.09,13.2
"2016-04-11 00:50:30",1536512,11.58,51.97,7.663,1.435,13.15,103.1086,7.235,8.64,71.62,0,110.2,13.17,8.01,14.0
"2016-04-11 00:51:00",1536513,11.04,53.54,8.49,1.457,12.96,103.0745,7.148,8.59,72.02,0,110.2,13.17,7.93,15.5
"2016-04-11 00:51:30",1536514,10.64,48.04,8.15,1.651,12.88,103.042,7.065,8.52,72.42,0,110.2,13.17,7.84,10.0
"2016-04-11 00:52:00",1536515,11.26,47.67,7.03,1.764,12.73,103.0053,6.971,8.5,72.86,0,110.2,13.17,7.75,9.7
"2016-04-11 00:52:30",1536516,11.02,54.98,7.313,1.455,13.24,102.9776,6.9,8.44,73.36,0,110.2,13.17,7.68,17.0
"2016-04-11 00:53:00",1536517,10.29,48.11,7.627,1.832,13.03,102.9477,6.824,8.39,73.73,0,110.2,13.17,7.60,10.1
"2016-04-11 00:53:30",1536518,8.87,44.18,8.09,1.914,12.68,102.9164,6.744,8.21,73.92,0,110.2,13.17,7.52,6.2
"2016-04-11 00:54:00",1536519,9.93,45.08,6.873,1.417,11.53,102.8867,6.668,8.15,74.24,0,110.2,13.17,7.44,7.1
"2016-04-11 00:54:30",1536520,10.6,46.91,8.11,1.476,11.93,102.8616,6.604,8.01,74.47,0,110.2,13.17,7.38,8.9
"2016-04-11 00:55:00",1536521,10.9,49.1,7.27,1.382,12.09,102.8402,6.549,8.02,74.85,0,110.2,13.17,7.32,11.1
"2016-04-11 00:55:30",1536522,11.28,49.64,6.976,1.42,13.27,102.8154,6.486,8,75.17,0,110.2,13.17,7.26,11.6
"2016-04-11 00:56:00",1536523,11.04,49.47,6.864,1.664,13.7,102.7901,6.421,8.02,75.5,0,110.2,13.17,7.20,11.5
"2016-04-11 00:56:30",1536524,10.81,47.2,7.305,1.872,13.17,102.7706,6.371,7.925,75.7,0,110.2,13.17,7.15,9.2
"2016-04-11 00:57:00",1536525,8.52,43.08,6.222,1.295,13.36,102.7501,6.319,7.864,76.03,0,110.2,13.17,7.09,5.1
"2016-04-11 00:57:30",1536526,9.47,46.44,6.427,1.683,13.46,102.725,6.255,7.787,76.4,0,110.2,13.17,7.03,8.4
"2016-04-11 00:58:00",1536527,9.1,46.26,7.358,1.424,13.39,102.7209,6.245,7.739,76.75,0,110.2,13.17,7.02,8.3
"2016-04-11 00:58:30",1536528,9.7,46.31,6.91,1.636,13.12,102.6978,6.186,7.691,76.98,0,110.2,13.17,6.96,8.3
"2016-04-11 00:59:00",1536529,10.91,49.61,6.56,1.43,12.7,102.6892,6.163,7.658,77.37,0,110.2,13.17,6.94,11.6
"2016-04-11 00:59:30",1536530,11.01,47.76,6.672,1.481,12.75,102.6689,6.112,7.59,77.7,0,110.1,13.17,6.89,9.8
"2016-04-11 01:00:00",1536531,10.08,45.7,7.556,2.015,12.82,102.6441,6.048,7.549,77.98,0,110.2,13.17,6.82,7.7
"2016-04-11 01:00:30",1536532,9.54,42.17,7.146,1.492,12.71,102.6241,5.997,7.496,78.25,0,110.1,13.17,6.77,4.2
"2016-04-11 01:01:00",1536533,9.44,44.83,6.634,1.756,12.65,102.6039,5.945,7.431,78.47,0,110.1,13.17,6.72,6.8
"2016-04-11 01:01:30",1536534,10.24,46.27,6.603,1.827,12.78,102.5768,5.876,7.364,78.79,0,110.1,13.17,6.65,8.3
"2016-04-11 01:02:00",1536535,11.66,49.17,6.891,1.501,12.46,102.5432,5.79,7.304,79.07,0,110.1,13.17,6.56,11.2
"2016-04-11 01:02:30",1536536,12.04,49.1,6.391,1.378,12.86,102.5116,5.71,7.228,79.42,0,110.1,13.17,6.48,11.1
"2016-04-11 01:03:00",1536537,12.12,49.37,6.248,1.465,12.77,102.476,5.619,7.171,79.76,0,110.1,13.17,6.39,11.4
"2016-04-11 01:03:30",1536538,12.72,52.31,6.888,1.276,12.35,102.4441,5.537,7.087,80.1,0,110.1,13.17,6.31,14.3
"2016-04-11 01:04:00",1536539,12.69,50.56,7.375,1.597,12.5,102.4161,5.466,7.035,80.4,0,110.1,13.17,6.24,12.6
"2016-04-11 01:04:30",1536540,11.29,48.28,6.787,1.633,13.01,102.389,5.397,6.97,80.8,0,110.1,13.18,6.17,10.3
"2016-04-11 01:05:00",1536541,11.26,48.34,6.654,1.479,12.59,102.3613,5.326,6.917,81.1,0,110.1,13.18,6.10,10.3
"2016-04-11 01:05:30",1536542,13.21,50.44,6.261,1.393,12.89,102.3345,5.257,6.846,81.4,0,110.1,13.18,6.03,12.4
"2016-04-11 01:06:00",1536543,13.63,52.03,6.425,1.207,12.57,102.3071,5.187,6.759,81.7,0,110.1,13.18,5.96,14.0
"2016-04-11 01:06:30",1536544,13.5,51.22,6.705,1.301,12.53,102.2792,5.116,6.664,82,0,110.1,13.18,5.89,13.2
"2016-04-11 01:07:00",1536545,12.38,51.9,6.852,1.522,12.78,102.2619,5.072,6.596,82.2,0,110.1,13.19,5.84,13.9
"2016-04-11 01:07:30",1536546,11.9,49.09,6.766,1.759,12.47,102.2439,5.026,6.579,82.5,0,110.1,13.19,5.80,11.1
"2016-04-11 01:08:00",1536547,12.53,52.26,7.409,1.774,12.81,102.2211,4.968,6.518,82.8,0,110.1,13.19,5.74,14.3
"2016-04-11 01:08:30",1536548,13.74,51.5,6.631,1.377,12.2,102.2045,4.925,6.425,83,0,110.1,13.19,5.69,13.5
"2016-04-11 01:09:00",1536549,13.53,49.39,6.779,1.487,12.13,102.1896,4.887,6.384,83.3,0,110.1,13.19,5.66,11.4
"2016-04-11 01:09:30",1536550,13.96,51.35,6.88,1.264,12.58,102.1651,4.825,6.325,83.6,0,110.1,13.19,5.59,13.3
"2016-04-11 01:10:00",1536551,13.49,51.11,6.841,1.549,12.65,102.1508,4.788,6.288,83.9,0,110.1,13.19,5.56,13.1
"2016-04-11 01:10:30",1536552,13.72,53.03,6.987,1.428,12.87,102.1344,4.746,6.211,84.2,0,110.1,13.19,5.52,15.0
"2016-04-11 01:11:00",1536553,14.27,54.5,6.385,1.397,12.76,102.1342,4.746,6.195,84.5,0,110.1,13.19,5.51,16.5
"2016-04-11 01:11:30",1536554,14.42,53.91,7.713,1.315,12.7,102.1155,4.698,6.122,84.8,0,110.1,13.19,5.47,15.9
"2016-04-11 01:12:00",1536555,13.87,51.55,7.183,1.421,12.41,102.102,4.664,6.076,85,0,110.1,13.19,5.43,13.5
"2016-04-11 01:12:30",1536556,14.32,53.94,6.319,1.265,12.58,102.0921,4.638,6.053,85.2,0,110.1,13.19,5.41,15.9
"2016-04-11 01:13:00",1536557,14.51,51.92,6.97,1.356,12.07,102.0737,4.591,6.008,85.2,0,110.1,13.19,5.36,13.9
"2016-04-11 01:13:30",1536558,14.08,51.51,6.553,1.32,12.33,102.0537,4.54,5.947,85.3,0,110.1,13.2,5.31,13.5
"2016-04-11 01:14:00",1536559,14.06,52.39,7.235,1.449,12.16,102.0336,4.489,5.942,85.4,0,110.1,13.2,5.26,14.4
"2016-04-11 01:14:30",1536560,14.36,53.72,6.85,1.29,12.39,102.0144,4.44,5.882,85.5,0,110.1,13.2,5.21,15.7
"2016-04-11 01:15:00",1536561,14.43,53.56,6.8,1.224,12.47,102.0003,4.404,5.832,85.6,0,110.1,13.2,5.17,15.6
"2016-04-11 01:15:30",1536562,14.21,52.16,7.293,1.227,12.09,101.984,4.362,5.802,85.7,0,110.1,13.2,5.13,14.2
"2016-04-11 01:16:00",1536563,14.15,50.94,6.881,1.399,11.96,101.9771,4.345,5.742,85.8,0,110,13.2,5.11,12.9
"2016-04-11 01:16:30",1536564,14.61,53.06,6.476,1.335,12.42,101.9574,4.295,5.7,85.9,0,110,13.2,5.06,15.1
"2016-04-11 01:17:00",1536565,13.02,50.33,6.545,1.445,12.16,101.9494,4.274,5.677,86,0,110,13.2,5.04,12.3
"2016-04-11 01:17:30",1536566,13.64,49.84,6.946,1.64,12.06,101.9288,4.221,5.614,86.1,0,110,13.2,4.99,11.8
"2016-04-11 01:18:00",1536567,13.32,50.19,7.094,1.474,11.81,101.9187,4.196,5.563,86.2,0,110,13.19,4.96,12.2
"2016-04-11 01:18:30",1536568,14.05,53.08,6.893,1.279,11.91,101.8987,4.144,5.512,86.4,0,110,13.2,4.91,15.1
"2016-04-11 01:19:00",1536569,14,54.38,6.47,1.412,11.95,101.8922,4.128,5.487,86.5,0,110,13.2,4.89,16.4
"2016-04-11 01:19:30",1536570,14.85,57.78,6.482,1.3,12.29,101.8667,4.063,5.465,86.6,0,110,13.19,4.83,19.8
"2016-04-11 01:20:00",1536571,15.04,56.52,6.139,1.398,12.36,101.8631,4.054,5.452,86.8,0,110,13.2,4.82,18.5
"2016-04-11 01:20:30",1536572,14.93,54.94,7.02,1.269,11.9,101.8503,4.021,5.384,86.9,0,110,13.2,4.79,16.9
"2016-04-11 01:21:00",1536573,14.94,56.04,6.979,1.26,12.13,101.8382,3.99,5.366,87.2,0,110,13.2,4.76,18.0
"2016-04-11 01:21:30",1536574,15.07,58.59,6.285,1.366,12.26,101.8294,3.968,5.323,87.3,0,110,13.2,4.73,20.6
"2016-04-11 01:22:00",1536575,15.28,58.56,6.214,1.289,12.26,101.8139,3.928,5.294,87.4,0,110,13.2,4.69,20.6
"2016-04-11 01:22:30",1536576,14.87,55.99,6.445,1.229,12.19,101.7989,3.89,5.277,87.6,0,110,13.2,4.66,18.0
"2016-04-11 01:23:00",1536577,14.34,58.3,6.723,1.296,11.76,101.7972,3.885,5.268,87.7,0,110,13.2,4.65,20.3
"2016-04-11 01:23:30",1536578,14.37,56.27,6.936,1.284,11.77,101.7935,3.876,5.198,87.8,0,110,13.21,4.64,18.3
"2016-04-11 01:24:00",1536579,14.25,57.93,7.755,1.351,12.1,101.7743,3.827,5.194,88,0,110,13.21,4.59,19.9
"2016-04-11 01:24:30",1536580,14.4,62.65,7.248,1.436,12.31,101.7636,3.8,5.184,88.1,0,110,13.21,4.56,24.7
"2016-04-11 01:25:00",1536581,14.64,64.21,6.814,1.331,12.26,101.7633,3.799,5.155,88.3,0,110,13.21,4.56,26.2
"2016-04-11 01:25:30",1536582,14.67,70.55,7.097,1.251,12.97,101.7633,3.799,5.116,88.5,0,110,13.22,4.56,32.6
"2016-04-11 01:26:00",1536583,14.1,70.82,6.951,1.43,12.5,101.7772,3.834,5.141,88.7,0,110,13.22,4.60,32.8
"2016-04-11 01:26:30",1536584,14.23,73.42,6.833,1.217,12.89,101.7966,3.884,5.133,89,0,110,13.22,4.65,35.4
"2016-04-11 01:27:00",1536585,14.76,65.86,6.798,1.27,12.07,101.7972,3.885,5.165,89.2,0,110,13.22,4.65,27.9
"2016-04-11 01:27:30",1536586,14.46,60.84,6.893,1.456,11.42,101.7975,3.886,5.148,89.3,0,110,13.22,4.65,22.8
"2016-04-11 01:28:00",1536587,14.12,56.51,8.27,1.231,11.42,101.7973,3.886,5.173,89.3,0,110,13.22,4.65,18.5
"2016-04-11 01:28:30",1536588,14.16,55.54,7.427,1.3,11.9,101.7724,3.822,5.153,89.3,0,110,13.22,4.59,17.5
"2016-04-11 01:29:00",1536589,14.02,55.83,6.792,1.337,11.69,101.7612,3.793,5.132,89.2,0,110,13.22,4.56,17.8
"2016-04-11 01:29:30",1536590,13.4,56.98,6.847,1.282,11.98,101.7432,3.748,5.083,89.1,0,110,13.22,4.51,19.0
"2016-04-11 01:30:00",1536591,13.91,58.65,6.785,1.474,11.8,101.7376,3.733,5.051,89.1,0,110,13.22,4.50,20.7
"2016-04-11 01:30:30",1536592,13.94,56.63,7.617,1.25,11.67,101.7181,3.684,4.991,89,0,110,13.22,4.45,18.6
"2016-04-11 01:31:00",1536593,12.89,53.18,6.84,1.294,11.71,101.7085,3.659,4.973,89.1,0,110,13.22,4.42,15.2
"2016-04-11 01:31:30",1536594,13.52,54.98,6.639,1.35,11.4,101.6868,3.604,4.961,89.1,0,110,13.22,4.37,17.0
"2016-04-11 01:32:00",1536595,13.44,57,7.14,1.302,11.69,101.6659,3.55,4.921,89,0,110,13.22,4.31,19.0
"2016-04-11 01:32:30",1536596,14.87,61.6,6.952,1.373,11.38,101.6518,3.514,4.848,89,0,110,13.22,4.28,23.6
"2016-04-11 01:33:00",1536597,14.54,60.48,7.008,1.323,11.13,101.6374,3.478,4.82,89,0,110,13.22,4.24,22.5
"2016-04-11 01:33:30",1536598,14.39,59.81,6.958,1.346,11.51,101.6196,3.432,4.803,89.1,0,110,13.22,4.20,21.8
"2016-04-11 01:34:00",1536599,13.94,58.9,6.879,1.578,11.45,101.6137,3.417,4.761,89.1,0,110,13.22,4.18,20.9
"2016-04-11 01:34:30",1536600,13.59,57.34,7.07,1.655,11.31,101.5937,3.366,4.724,89.1,0,110,13.22,4.13,19.3
"2016-04-11 01:35:00",1536601,14.22,60.54,6.693,1.417,11.26,101.5846,3.343,4.695,89.1,0,110,13.22,4.11,22.5
"2016-04-11 01:35:30",1536602,14.53,59.86,6.285,1.26,11.19,101.5618,3.284,4.65,89.2,0,110,13.22,4.05,21.9
"2016-04-11 01:36:00",1536603,13.96,59.09,6.468,1.348,11.27,101.5592,3.278,4.592,89.2,0,110,13.21,4.04,21.1
"2016-04-11 01:36:30",1536604,13.8,62.96,7.125,1.41,11.35,101.5567,3.271,4.594,89.4,0,110,13.22,4.03,25.0
"2016-04-11 01:37:00",1536605,14.13,61.03,6.599,1.274,11.06,101.5389,3.226,4.553,89.4,0,110,13.22,3.99,23.0
"2016-04-11 01:37:30",1536606,14.42,60.21,6.907,1.319,11.03,101.5282,3.199,4.531,89.5,0,109.9,13.22,3.96,22.2
"2016-04-11 01:38:00",1536607,14.55,61.63,6.682,1.33,10.89,101.5233,3.186,4.552,89.5,0,109.9,13.22,3.95,23.6
"2016-04-11 01:38:30",1536608,14.4,61.13,6.904,1.29,11.35,101.4973,3.12,4.49,89.6,0,109.9,13.22,3.88,23.1
"2016-04-11 01:39:00",1536609,13.84,59.05,6.553,1.345,11.17,101.4925,3.108,4.456,89.7,0,109.9,13.22,3.87,21.0
"2016-04-11 01:39:30",1536610,13.95,60.19,7.276,1.364,10.95,101.492,3.106,4.419,89.7,0,109.9,13.22,3.87,22.2
"2016-04-11 01:40:00",1536611,13.84,58.18,7.696,1.388,10.9,101.4824,3.082,4.394,89.8,0,109.9,13.22,3.84,20.2
"2016-04-11 01:40:30",1536612,13.59,58.96,7.277,1.471,11.22,101.4643,3.036,4.381,89.9,0,109.9,13.23,3.80,21.0
"2016-04-11 01:41:00",1536613,13.54,58.33,6.723,1.335,11.07,101.4586,3.021,4.379,89.9,0,109.9,13.23,3.78,20.3
"2016-04-11 01:41:30",1536614,13.4,57.6,6.845,1.457,10.81,101.4552,3.012,4.337,90,0,109.9,13.23,3.77,19.6
"2016-04-11 01:42:00",1536615,14.1,61.15,6.432,1.469,10.77,101.4335,2.957,4.304,90,0,109.9,13.23,3.72,23.2
"2016-04-11 01:42:30",1536616,13.83,58.79,6.774,1.439,10.81,101.4247,2.935,4.272,90.1,0,109.9,13.23,3.70,20.8
"2016-04-11 01:43:00",1536617,13.6,56.64,7.277,1.357,10.91,101.4247,2.935,4.252,90.2,0,109.9,13.23,3.70,18.6
"2016-04-11 01:43:30",1536618,13.93,59.94,6.59,1.448,11.33,101.4247,2.935,4.269,90.3,0,109.9,13.23,3.70,21.9
"2016-04-11 01:44:00",1536619,13.71,58.5,6.117,1.257,11.14,101.4247,2.935,4.267,90.4,0,109.9,13.23,3.70,20.5
"2016-04-11 01:44:30",1536620,13.69,60.24,6.982,1.274,10.71,101.421,2.925,4.221,90.4,0,109.9,13.23,3.69,22.2
"2016-04-11 01:45:00",1536621,13.64,59.49,6.77,1.309,10.93,101.4131,2.905,4.233,90.5,0,109.9,13.24,3.67,21.5
"2016-04-11 01:45:30",1536622,13.8,60.77,6.531,1.308,11.13,101.4046,2.883,4.186,90.6,0,109.9,13.24,3.65,22.8
"2016-04-11 01:46:00",1536623,13.92,61.91,6.151,1.369,11.14,101.3928,2.853,4.198,90.7,0,109.9,13.24,3.62,23.9
"2016-04-11 01:46:30",1536624,13.91,64.83,6.564,1.283,11.49,101.3945,2.857,4.169,90.7,0,109.9,13.24,3.62,26.8
"2016-04-11 01:47:00",1536625,14.31,66.7,6.195,1.331,11.04,101.4098,2.897,4.181,90.8,0,109.9,13.24,3.66,28.7
"2016-04-11 01:47:30",1536626,14.24,68.21,7.304,1.175,11.33,101.4262,2.938,4.152,90.9,0,109.9,13.24,3.70,30.2
"2016-04-11 01:48:00",1536627,14.07,67.58,6.424,1.336,11.45,101.4407,2.976,4.204,91.1,0,109.9,13.24,3.74,29.6
"2016-04-11 01:48:30",1536628,14.14,67.68,6.602,1.285,11.05,101.46,3.025,4.214,91.3,0,109.9,13.24,3.79,29.7
"2016-04-11 01:49:00",1536629,14.21,62.77,6.851,1.364,10.51,101.4702,3.051,4.253,91.4,0,109.9,13.24,3.81,24.8
"2016-04-11 01:49:30",1536630,14.37,64.02,6.627,1.185,10.62,101.4549,3.012,4.273,91.4,0,109.9,13.24,3.77,26.0
"2016-04-11 01:50:00",1536631,14.16,65.24,6.811,1.249,10.96,101.4445,2.985,4.221,91.4,0,109.9,13.24,3.75,27.2